TIANGONG-2 (41765 NORAD) Tracking and Keplerian Element Data

This shows tracking and keplerian element data for the satellite.

Feedback or suggestion? Click here.




ElementValue
Catalog41765
NameTIANGONG-2
Epoch Orbit12422
Epoch Day323.22071759
Epoch Year2018
RAAN138.2413
Inclination42.7823
Eccentricity0.000859
Argument of Perigee259.3217
Mean Anonmoly82.8415
Mean Motion15.6001112
Decay Rate2.643E-05
L11 41765U 16057A 18323.22071759 .00002643 00000-0 36363-4 0 9992
L22 41765 42.7823 138.2413 0008590 259.3217 82.8415 15.60011120124220

Live tracking and technical data element details for TIANGONG-2 (NORAD 41765). TIANGONG-2 can be tracked NOW for your location showing map with azimuth and elevation plus other details from your city location.

Track the satellite on the map from your city or location and see movement details for azimuth, elevation, latitude, longitude, range, height, and movement on the map or in text.







IsCatalogInMostPopularTable: catalog: 41765, numindb: 124
Update: records affected: 1



GetName: 41765 TIANGONG-2

Hit Count: updated at: Mon, 19 Nov 2018 23:35:51 GMT